When you browse on this site, cookies collect data to enhance your experience and personalize the content and advertising you see.
Visit our Privacy Policy to learn more. By continuing to use the site, you agree to this use of cookies and data.
  • In Austria
  • List of Countries
  • For 7 days
  • Water Temperature
  • Weather Map
  • News
  • Weather Widgets
  • user-avatar
    Login

    Hourly Weather Karaganka

    Today, 14 November, Thursday

    Time Temperature Precipitation Wind Pressure Humidity
    00:00 -1°C° 0 mm 3 mps 744 mmHg 92%
    01:00 -1°C° 0 mm 2 mps 744 mmHg 93%
    02:00 -1°C° 0 mm 3 mps 744 mmHg 93%
    03:00 -1°C° 0 mm 3 mps 745 mmHg 94%
    04:00 -1°C° 0 mm 3 mps 745 mmHg 95%
    05:00 -2°C° 0.1 mm 4 mps 745 mmHg 95%
    06:00 -2°C° 0.1 mm 4 mps 746 mmHg 96%
    07:00 -3°C° 0.1 mm 4 mps 746 mmHg 96%
    08:00 -4°C° 0.1 mm 5 mps 747 mmHg 89%
    09:00 -4°C° 0.1 mm 6 mps 748 mmHg 83%
    10:00 -4°C° 0 mm 7 mps 748 mmHg 75%
    11:00 -4°C° 0 mm 7 mps 749 mmHg 74%
    12:00 -6°C° 0 mm 7 mps 749 mmHg 73%
    13:00 -6°C° 0 mm 7 mps 750 mmHg 72%
    14:00 -7°C° 0 mm 7 mps 751 mmHg 73%
    15:00 -7°C° 0 mm 7 mps 751 mmHg 73%
    16:00 -8°C° 0 mm 7 mps 752 mmHg 74%
    17:00 -8°C° 0 mm 7 mps 753 mmHg 75%
    18:00 -9°C° 0 mm 7 mps 753 mmHg 75%
    19:00 -10°C° 0 mm 6 mps 754 mmHg 75%
    20:00 -10°C° 0 mm 6 mps 754 mmHg 73%
    21:00 -10°C° 0 mm 6 mps 755 mmHg 71%
    22:00 -10°C° 0 mm 6 mps 755 mmHg 69%
    23:00 -10°C° 0 mm 5 mps 755 mmHg 69%

    Tomorrow, 15 November, Friday

    Time Temperature Precipitation Wind Pressure Humidity
    00:00 -10°C° 0 mm 5 mps 755 mmHg 68%
    01:00 -10°C° 0 mm 5 mps 755 mmHg 68%
    02:00 -10°C° 0 mm 4 mps 756 mmHg 68%
    03:00 -10°C° 0 mm 4 mps 756 mmHg 68%
    04:00 -10°C° 0 mm 4 mps 756 mmHg 69%
    05:00 -10°C° 0 mm 4 mps 756 mmHg 68%
    06:00 -9°C° 0 mm 3 mps 757 mmHg 68%
    07:00 -9°C° 0 mm 3 mps 757 mmHg 68%
    08:00 -9°C° 0 mm 3 mps 757 mmHg 65%
    09:00 -7°C° 0 mm 2 mps 757 mmHg 61%
    10:00 -7°C° 0 mm 2 mps 757 mmHg 57%
    11:00 -4°C° 0 mm 1 mps 757 mmHg 53%
    12:00 -3°C° 0 mm 1 mps 757 mmHg 50%
    13:00 -4°C° 0 mm 0 mps 757 mmHg 46%
    14:00 -2°C° 0 mm 1 mps 757 mmHg 48%
    15:00 -2°C° 0 mm 1 mps 757 mmHg 50%
    16:00 -4°C° 0 mm 2 mps 757 mmHg 51%
    17:00 -5°C° 0 mm 2 mps 757 mmHg 53%
    18:00 -5°C° 0 mm 2 mps 756 mmHg 54%
    19:00 -6°C° 0 mm 3 mps 756 mmHg 56%
    20:00 -6°C° 0 mm 3 mps 756 mmHg 57%
    21:00 -6°C° 0 mm 3 mps 756 mmHg 58%
    22:00 -6°C° 0 mm 3 mps 756 mmHg 59%
    23:00 -6°C° 0 mm 3 mps 756 mmHg 61%

    Day after tomorrow, 16 November, Saturday

    Time Temperature Precipitation Wind Pressure Humidity
    00:00 -6°C° 0 mm 3 mps 756 mmHg 63%
    01:00 -6°C° 0 mm 3 mps 756 mmHg 66%
    02:00 -6°C° 0 mm 3 mps 756 mmHg 68%
    03:00 -6°C° 0 mm 3 mps 756 mmHg 70%
    04:00 -7°C° 0 mm 4 mps 756 mmHg 73%
    05:00 -7°C° 0 mm 4 mps 755 mmHg 75%
    06:00 -6°C° 0 mm 3 mps 755 mmHg 78%
    07:00 -6°C° 0 mm 3 mps 755 mmHg 80%
    08:00 -5°C° 0 mm 4 mps 755 mmHg 75%
    09:00 -3°C° 0 mm 4 mps 755 mmHg 70%
    10:00 -2°C° 0 mm 4 mps 755 mmHg 65%
    11:00 -1°C° 0 mm 4 mps 755 mmHg 62%
    12:00 0°C° 0 mm 4 mps 755 mmHg 59%
    13:00 +1°C° 0 mm 4 mps 755 mmHg 56%
    14:00 0°C° 0 mm 4 mps 755 mmHg 60%
    15:00 0°C° 0 mm 4 mps 755 mmHg 64%
    16:00 -1°C° 0 mm 4 mps 754 mmHg 69%
    17:00 -2°C° 0 mm 4 mps 754 mmHg 70%
    18:00 -2°C° 0 mm 4 mps 754 mmHg 72%
    19:00 -2°C° 0 mm 4 mps 754 mmHg 73%
    20:00 -2°C° 0 mm 4 mps 754 mmHg 73%
    21:00 -1°C° 0 mm 3 mps 754 mmHg 72%
    22:00 -1°C° 0 mm 3 mps 754 mmHg 71%
    23:00 -1°C° 0 mm 3 mps 754 mmHg 71%

    17 November, Sunday

    Time Temperature Precipitation Wind Pressure Humidity
    00:00 -1°C° 0 mm 3 mps 754 mmHg 72%
    01:00 -1°C° 0 mm 3 mps 754 mmHg 72%
    02:00 -1°C° 0 mm 3 mps 753 mmHg 72%
    03:00 -1°C° 0 mm 3 mps 753 mmHg 73%
    04:00 -1°C° 0 mm 3 mps 753 mmHg 73%
    05:00 -1°C° 0 mm 3 mps 753 mmHg 73%
    06:00 -1°C° 0 mm 3 mps 753 mmHg 73%
    07:00 -2°C° 0 mm 3 mps 753 mmHg 73%
    08:00 -2°C° 0 mm 4 mps 753 mmHg 68%
    09:00 -1°C° 0 mm 4 mps 752 mmHg 64%
    10:00 0°C° 0 mm 4 mps 752 mmHg 60%
    11:00 +1°C° 0 mm 5 mps 752 mmHg 57%
    12:00 +1°C° 0 mm 5 mps 752 mmHg 54%
    13:00 +2°C° 0 mm 5 mps 751 mmHg 50%
    14:00 +1°C° 0 mm 5 mps 751 mmHg 53%
    15:00 0°C° 0 mm 5 mps 751 mmHg 56%
    16:00 -1°C° 0 mm 5 mps 750 mmHg 59%
    17:00 -1°C° 0 mm 5 mps 750 mmHg 60%
    18:00 -2°C° 0 mm 5 mps 750 mmHg 62%
    19:00 -4°C° 0 mm 5 mps 750 mmHg 63%
    20:00 -3°C° 0 mm 4 mps 750 mmHg 64%
    21:00 -3°C° 0 mm 4 mps 749 mmHg 65%
    22:00 -2°C° 0 mm 3 mps 749 mmHg 66%
    23:00 -2°C° 0 mm 3 mps 749 mmHg 67%

    18 November, Monday

    Time Temperature Precipitation Wind Pressure Humidity
    00:00 -3°C° 0 mm 4 mps 749 mmHg 69%
    01:00 -3°C° 0 mm 4 mps 748 mmHg 70%
    02:00 -3°C° 0 mm 4 mps 748 mmHg 71%
    03:00 -4°C° 0 mm 5 mps 748 mmHg 72%
    04:00 -4°C° 0 mm 5 mps 748 mmHg 74%
    05:00 -5°C° 0 mm 5 mps 747 mmHg 75%
    06:00 -5°C° 0 mm 5 mps 747 mmHg 76%
    07:00 -5°C° 0 mm 5 mps 747 mmHg 77%
    08:00 -4°C° 0 mm 5 mps 746 mmHg 75%
    09:00 -4°C° 0 mm 6 mps 746 mmHg 74%
    10:00 -3°C° 0 mm 6 mps 746 mmHg 72%
    11:00 -3°C° 0 mm 6 mps 745 mmHg 71%
    12:00 -2°C° 0 mm 6 mps 745 mmHg 69%
    13:00 -1°C° 0 mm 6 mps 745 mmHg 68%
    14:00 -2°C° 0 mm 6 mps 744 mmHg 68%
    15:00 -2°C° 0 mm 6 mps 743 mmHg 68%
    16:00 -3°C° 0 mm 6 mps 743 mmHg 68%
    17:00 -2°C° 0 mm 5 mps 742 mmHg 66%
    18:00 -2°C° 0 mm 5 mps 742 mmHg 64%
    19:00 -2°C° 0 mm 5 mps 742 mmHg 62%
    20:00 -2°C° 0 mm 5 mps 742 mmHg 64%
    21:00 -2°C° 0 mm 5 mps 741 mmHg 66%
    22:00 -2°C° 0 mm 5 mps 741 mmHg 69%
    23:00 -2°C° 0 mm 5 mps 741 mmHg 72%

    19 November, Tuesday

    Time Temperature Precipitation Wind Pressure Humidity
    00:00 -2°C° 0 mm 5 mps 741 mmHg 75%
    01:00 -2°C° 0 mm 4 mps 741 mmHg 78%
    02:00 -2°C° 0 mm 4 mps 740 mmHg 82%
    03:00 -2°C° 0 mm 5 mps 740 mmHg 86%
    04:00 -2°C° 0 mm 5 mps 740 mmHg 90%
    05:00 -2°C° 0.1 mm 5 mps 740 mmHg 91%
    06:00 -2°C° 0.1 mm 4 mps 740 mmHg 92%
    07:00 -2°C° 0.1 mm 4 mps 740 mmHg 93%
    08:00 -1°C° 0 mm 4 mps 740 mmHg 93%
    09:00 -1°C° 0 mm 4 mps 740 mmHg 94%
    10:00 -1°C° 0 mm 4 mps 740 mmHg 94%
    11:00 -1°C° 0.1 mm 5 mps 740 mmHg 94%
    12:00 -2°C° 0.1 mm 5 mps 740 mmHg 94%
    13:00 -2°C° 0.1 mm 5 mps 740 mmHg 95%
    14:00 -6°C° 0.5 mm 6 mps 740 mmHg 93%
    15:00 -10°C° 0.5 mm 8 mps 740 mmHg 91%
    16:00 -12°C° 0.5 mm 9 mps 740 mmHg 89%
    17:00 -14°C° 0.3 mm 9 mps 741 mmHg 88%
    18:00 -15°C° 0.3 mm 9 mps 742 mmHg 87%
    19:00 -17°C° 0.3 mm 9 mps 742 mmHg 86%
    20:00 -19°C° 0.1 mm 9 mps 743 mmHg 85%
    21:00 -20°C° 0.1 mm 9 mps 744 mmHg 83%
    22:00 -20°C° 0.1 mm 9 mps 745 mmHg 82%
    23:00 -22°C° 0 mm 9 mps 745 mmHg 79%
    Show more